Simultaneous Nadir Overpasses (SNOs) Predictions

Prediction of SNOs between AQUA and NPP Satellite Orbit:

Table of predicted SNOs for the next 14.0 days since TLE Epoch: 3/18/2016
Index Date (AQUA) Time (AQUA) Lat,Lon (AQUA) SZA (AQUA ) Date (NPP) Time (NPP) Lat,Lon (NPP) SZA (NPP ) Distance(km) Time Diff (sec)
1 03/18/2016 13:23:53 50.16,-167.11 123.68 03/18/2016 13:22:41 50.39,-168.46 124.15 99.77 72
2 03/18/2016 14:06:03 -75.01, 24.85 80.67 03/18/2016 14:05:58 -75.00, 24.78 80.65 2.19 5
3 03/18/2016 14:54:58 76.51,-163.04 97.60 03/18/2016 14:56:09 76.52,-162.96 97.52 2.29 71
4 03/21/2016 05:33:28 73.95, -29.48 99.43 03/21/2016 05:32:25 73.95, -29.51 99.50 1.01 63
5 03/21/2016 06:22:28 -75.37, 141.69 82.15 03/21/2016 06:22:42 -75.36, 141.63 82.15 1.59 14
6 03/23/2016 21:49:49 74.57, 87.82 97.69 03/23/2016 21:49:05 74.57, 87.84 97.72 0.67 44
7 03/23/2016 22:38:51 -75.86,-101.03 83.79 03/23/2016 22:39:24 -75.86,-101.02 83.82 0.33 33
8 03/26/2016 14:06:19 74.70,-155.99 96.47 03/26/2016 14:05:55 74.69,-156.05 96.51 2.01 24
9 03/26/2016 14:55:22 -75.94, 15.08 84.95 03/26/2016 14:56:15 -75.94, 15.00 84.98 2.29 53
10 03/29/2016 05:39:29 -54.31, 130.61 64.37 03/29/2016 05:38:16 -54.54, 129.37 63.99 84.40 73
11 03/29/2016 06:22:36 75.47, -38.06 94.54 03/29/2016 06:22:31 75.48, -37.99 94.52 2.30 5
12 03/29/2016 07:11:41 -76.54, 132.88 86.71 03/29/2016 07:12:53 -76.55, 132.96 86.79 2.27 72
13 03/31/2016 21:50:12 -73.95, -93.68
